OPS 4682 DEB, 38457

Orbit data source: Space-Track

OPS 4682 DEB, 38457 is space debris in LEO originally from a launch on Sat, 03 Apr 1965 UTC launched from the Air Force Western Test Range (AFWTR). Debris objects in space refer to the collection of defunct objects orbiting the Earth. Examples of debris include non-operational satellites, rocket bodies, and fragments generated from explosions, collisions, or faulty payload assembly.

Loading next visibility...
Identifier
38457, 1965-027FN
Orbit
LEO
Country
Flag of USUS
Related business
Manufacturer
Unknown
Mission
Spacecraft
Bus & Motor
Unknown
Mass
Unknown
Launch date (UTC)
1965-04-03 (61 years ago)
Launch vehicle
Unknown
Launch site
Air Force Western Test Range (AFWTR)
Object type
Payload
Rocket body
Debris
Shape & HBR
Unknown shape, 0.1 m
Radar Cross Section
Medium (>0.1 m² and <1 m²)

Expand to show TLE details & history
Last TLE update: 1 week ago

TLE from 1 week ago
0 OPS 4682 DEB
1 38457U 65027FN  26256.05986948  .00000690  00000-0  23102-2 0  9992
2 38457  90.2386   4.1513 0032871 149.8423 210.4600 12.98576023623167
Epoch: 2026-09-13T01:26Z
TLE epoch observation values (Epoch: 2026-09-13T01:26:12.723Z)
Latitude
0.00005°
Longitude
-9.46166°
Altitude
1,292.242 km
Speed
7.2 km/s
True Right ascension
00h 16m 36s
True Declination
0° 00' 00"
Sunlit
Object was in full shadow at epoch
Visualization orbit readout
Latitude
Unknown
Longitude
Unknown
Altitude
Unknown
Speed
Unknown
Apparent Right ascension
Unknown
Apparent Declination
Unknown
Sunlit
N/A
Visualization observer readout
Local Sidereal Time
08:47:40
Azimuth
Unknown
Elevation
Unknown
Doppler factor
Unknown
Orbital elements
Apogee altitude
1,289.923 km
Perigee altitude
1,239.677 km
Semi-major axis
7,642.937 km
Eccentricity
0.00329
Inclination
90.2386°
RAAN
4.1513°
Arg. of periapsis
149.8423°
True anomaly
210.26972°
Mean anomaly
210.46°
Eccentric anomaly
210.36479°
Mean motion
3.24827 °/min
Orbital period
110.83 mins
BSTAR
0.0023102
Loading maneuver chart data...
Computing Atmospheric mass density...
Loading historical data...
Loading historical data...
Loading historical data...
Loading historical data...
Loading historical data...
Loading historical data...
Loading historical data...

Documentation

Showing up to 5 results
|